SCP
0 0 0 0 0 0 0 0 0 0 0 0 0 0 0 0 0 0 0 0 0 1 1 2 2 2 2 2 2 2 2 2 3 3 3 3 4 5 7 8 9 10 9 8
0 0 0 0 0 0 0 0 0 0 0 0 0 0 0 0 0 0 0 0 0 1 1 2 2 2 2 2 2 2 3 3 3 3 3 3 4 5 6 7 9 10 9 8
0 0 0 0 0 0 0 0 0 0 0 0 0 0 0 0 0 0 0 0 0 0 1 2 3 3 3 3 2 3 3 3 3 3 3 3 4 5 6 7 8 9 9 8
0 0 0 0 0 0 0 0 0 0 0 0 0 0 0 0 0 0 0 0 0 0 0 1 3 3 3 3 2 2 3 3 3 3 3 3 4 5 6 7 8 8 7 6
0 0 0 0 0 0 0 0 0 0 0 0 0 0 0 0 0 0 0 0 0 0 0 1 2 3 4 3 2 2 2 2 2 2 3 3 3 4 5 7 7 7 6 5
0 0 0 0 0 0 0 0 0 0 0 0 0 0 0 0 0 0 0 0 0 0 0 0 1 3 3 3 2 1 1 1 1 2 2 2 3 3 4 6 7 7 5 4
0 0 0 0 0 0 0 0 0 0 0 0 0 0 0 0 0 0 0 0 0 0 0 0 1 2 3 2 2 1 1 1 1 1 2 2 2 3 4 5 6 6 5 3
0 0 0 0 0 0 0 0 0 0 0 0 0 0 0 0 0 0 0 0 0 0 0 0 1 2 2 2 1 1 1 0 0 1 1 2 2 3 3 4 5 5 4 3
0 0 0 0 0 0 0 0 0 0 0 0 0 0 0 0 0 0 0 0 0 0 0 0 0 1 1 1 1 1 1 0 0 0 1 1 2 2 3 4 4 3 3 2
0 0 0 0 0 0 0 0 0 0 0 0 0 0 0 0 0 0 0 0 0 0 0 0 0 0 1 1 1 1 1 0 0 0 0 0 1 2 3 3 3 2 2 1
0 0 0 0 0 0 0 0 0 0 0 0 0 0 0 0 0 0 0 0 0 0 0 0 0 0 0 1 1 1 1 0 0 0 0 0 0 1 2 2 2 2 1 1
0 0 0 0 0 0 0 0 0 0 0 0 0 0 0 0 0 0 0 0 0 0 0 0 0 0 0 0 0 0 0 0 0 0 0 0 0 0 1 1 1 1 1 0
0 0 0 0 0 0 0 0 0 0 0 0 0 0 0 0 0 0 0 0 0 0 0 0 0 0 0 0 0 0 0 0 0 0 0 0 0 0 0 0 0 0 0 0
0 0 0 0 0 0 0 0 0 0 0 0 0 0 0 0 0 0 0 0 0 0 0 0 0 0 0 0 0 0 0 0 0 0 0 0 0 0 0 0 0 0 0 0
0 0 0 0 0 0 0 0 0 0 0 0 0 0 0 0 0 0 0 0 0 0 0 0 0 0 0 0 0 0 0 0 0 0 0 0 0 0 0 0 0 0 0 0
0 0 0 0 0 0 0 0 0 0 0 0 0 0 0 0 0 0 0 0 0 0 0 0 0 0 0 0 0 0 0 0 0 0 0 0 0 0 0 0 0 0 0 0
0 0 0 0 0 0 0 0 0 0 0 0 0 0 0 0 0 0 0 0 0 0 0 0 0 0 0 0 0 0 0 0 0 0 0 0 0 0 0 0 0 0 0 0
0 0 0 0 0 0 0 0 0 0 0 0 0 0 0 0 0 0 0 0 0 0 0 0 0 0 0 0 0 0 0 0 0 0 0 0 0 0 0 0 0 0 0 0
0 0 0 0 0 0 0 0 0 0 0 0 0 0 0 0 0 0 0 0 0 0 0 0 0 0 0 0 0 0 0 0 0 0 0 0 0 0 0 0 0 0 0 0
0 0 0 0 0 0 0 0 0 0 0 0 0 0 0 0 0 0 0 0 0 0 0 0 0 0 0 0 0 0 0 0 0 0 0 0 0 0 0 0 0 0 0 0
0 0 0 0 0 0 0 0 0 0 0 0 0 0 0 0 0 0 0 0 0 0 0 0 0 0 0 0 0 0 0 0 0 0 0 0 0 0 0 0 0 0 0 0
0 0 0 0 0 0 0 0 0 0 0 0 0 0 0 0 0 0 0 0 0 0 0 0 0 0 0 0 0 0 0 0 0 0 0 0 0 0 0 0 0 0 0 0
0 0 0 0 0 0 0 0 0 0 0 0 0 0 0 0 0 0 0 0 0 0 0 0 0 0 0 0 0 0 0 0 0 0 0 0 0 0 0 0 0 0 0 0
0 0 0 0 0 0 0 0 0 0 0 0 0 0 0 0 0 0 0 0 0 0 0 0 0 0 0 0 0 0 0 0 0 0 0 0 0 0 0 0 0 0 0 0
0 0 0 0 0 0 0 0 0 0 0 0 0 0 0 0 0 0 0 0 0 0 0 0 0 0 0 0 0 0 0 0 0 0 0 0 0 0 0 0 0 0 0 0
0 0 0 0 0 0 0 0 0 0 0 0 0 0 0 0 0 0 0 0 0 0 0 0 0 0 0 0 0 0 0 0 0 0 0 0 0 0 0 0 0 0 0 0
Wind_Speed
3 2 3 4 6 5 6 7 8 5 2 3 7 9 8 5 4 5 4 4 4 4 4 4 4 4 3 3 3 3 3 3 2 2 2 2 1 1 0 1 1 1 1 1
2 4 4 3 3 4 6 8 7 4 2 4 7 11 9 6 7 6 5 4 4 4 4 4 4 3 3 3 2 3 3 3 3 2 2 2 2 1 1 0 1 1 1 1
4 1 1 3 3 5 7 7 6 6 5 5 6 8 8 6 6 5 5 3 4 5 5 5 4 3 3 3 3 2 3 3 3 3 2 2 1 1 1 1 1 1 1 1
4 2 2 3 5 5 6 2 5 5 5 5 3 6 5 5 6 6 6 5 4 3 4 4 4 3 3 3 2 2 2 3 3 3 3 3 2 2 2 2 1 1 1 1
2 0 2 4 3 4 3 3 5 5 5 6 5 5 6 3 5 6 6 5 4 4 4 4 4 3 3 3 2 2 2 2 3 3 4 4 3 2 1 2 2 1 1 1
4 1 1 2 3 3 2 3 4 4 2 6 7 5 6 3 3 2 3 4 3 3 3 3 3 3 2 2 2 2 3 2 3 3 4 4 4 3 2 2 3 2 1 1
3 4 3 1 2 2 1 1 1 1 3 6 3 4 6 1 2 1 2 2 2 3 3 3 2 2 2 3 2 2 3 3 3 3 3 3 3 3 4 3 3 2 2 1
3 3 4 2 2 2 4 3 2 3 3 3 2 6 4 3 3 3 3 4 3 3 2 2 2 2 2 2 3 3 3 2 2 2 2 3 3 3 2 3 2 2 2 2
2 2 1 1 2 3 2 4 2 2 4 4 5 4 1 3 3 3 3 4 2 2 2 1 1 2 2 2 2 3 3 2 2 2 2 2 2 3 3 3 3 2 2 2
2 3 2 1 2 2 2 2 1 2 3 5 5 4 2 0 1 2 2 1 1 1 1 1 1 1 1 1 1 1 2 2 2 2 2 2 2 2 2 3 3 3 2 2
1 2 2 2 4 3 2 2 2 3 3 3 3 2 2 2 2 2 1 1 1 1 1 1 1 1 1 1 1 1 1 2 2 2 2 2 2 2 3 3 3 3 2 3
1 1 3 4 2 1 2 3 3 3 4 3 3 4 2 4 3 3 1 0 1 1 1 1 1 1 1 1 1 1 1 1 2 2 2 2 2 2 2 3 3 3 3 3
1 1 2 2 1 0 2 3 3 3 3 4 4 5 1 4 3 2 1 1 1 1 0 1 1 1 1 1 1 1 1 1 1 1 1 1 1 2 2 2 2 3 3 3
2 2 4 5 3 1 4 5 4 4 4 6 7 8 6 5 4 3 2 1 0 0 0 0 0 0 0 0 1 1 1 1 1 1 1 2 2 2 2 2 2 2 2 3
0 3 4 6 7 6 6 7 6 7 8 8 8 9 9 6 4 4 3 2 2 1 1 1 1 1 1 1 1 1 1 1 1 2 2 2 2 2 2 2 2 2 2 2
1 3 3 6 7 7 9 9 9 9 9 11 11 12 7 6 4 4 4 3 3 3 2 2 2 1 1 1 1 1 1 1 1 2 2 2 2 2 2 2 1 1 2 2
2 2 3 5 4 4 8 8 9 7 7 6 9 10 6 5 5 4 4 3 4 4 3 2 2 2 2 2 1 1 1 1 1 1 1 2 2 2 2 2 2 2 2 2
4 3 3 3 3 7 7 2 4 6 8 7 7 7 5 5 5 3 2 3 4 3 3 3 2 2 2 1 1 0 0 1 1 1 1 1 2 2 2 2 2 2 2 2
5 4 3 2 4 7 5 3 1 3 6 5 6 7 5 4 4 3 2 2 3 3 3 3 2 2 1 1 0 0 0 0 1 1 1 1 2 2 2 2 2 2 1 1
3 3 4 4 4 6 4 1 1 1 5 3 3 6 5 3 4 4 3 3 3 3 2 2 2 1 1 1 1 1 0 0 1 1 2 1 2 2 3 3 2 1 1 1
2 4 7 7 6 6 3 2 1 2 5 3 3 4 3 3 4 4 4 4 3 3 3 2 2 2 1 1 1 0 0 1 1 1 1 1 2 2 2 1 1 1 1 1
5 5 6 5 6 8 1 2 3 5 3 3 4 4 4 4 3 2 2 3 3 3 3 2 2 2 2 1 1 1 1 2 2 1 1 1 1 2 1 2 1 2 2 2
5 5 4 6 7 3 2 3 2 2 3 4 4 4 4 4 4 3 2 3 3 3 3 2 1 2 2 1 0 1 2 1 2 1 1 1 1 1 1 2 2 2 2 2
3 2 3 5 6 4 3 3 4 4 4 4 4 4 4 5 4 3 3 3 3 3 3 2 2 2 3 2 2 2 2 1 1 1 1 1 1 1 1 1 2 2 2 2
4 2 4 6 6 5 4 3 4 5 5 5 4 4 4 4 4 3 3 3 3 3 2 2 2 2 3 3 2 2 1 1 1 2 2 2 2 2 1 1 1 2 2 3
5 6 6 7 4 4 4 3 4 4 5 5 5 5 4 3 4 3 3 3 3 3 2 2 3 3 3 3 3 3 2 1 2 2 2 2 1 1 1 1 1 2 3 4
Wind_Direction
196 224 225 230 237 272 302 291 286 300 340 269 261 268 265 239 236 234 227 214 194 187 169 143 135 136 137 130 129 140 133 142 136 139 153 153 157 153 136 148 137 146 129 116
214 236 260 284 282 281 280 283 285 298 338 295 278 274 265 230 227 227 221 208 187 175 162 150 148 151 155 154 143 145 151 153 150 155 162 164 161 164 164 165 171 162 158 154
234 348 321 282 270 265 260 261 278 292 304 268 277 281 245 233 222 213 210 202 188 178 171 160 161 160 157 161 163 159 167 157 158 156 139 129 115 132 147 191 202 204 179 164
254 258 296 258 257 264 267 290 286 284 289 276 240 286 266 214 213 208 208 199 198 177 164 163 160 163 167 165 154 161 167 165 168 163 159 160 176 188 198 192 193 194 182 164
256 230 258 262 274 282 284 320 287 275 266 277 252 255 274 208 226 219 204 191 184 172 168 163 160 163 159 149 154 173 169 176 175 177 175 177 193 194 175 170 176 186 184 169
256 269 289 290 301 284 295 292 272 259 255 258 233 226 271 214 235 227 185 167 161 147 132 130 132 137 138 136 149 172 174 186 182 181 179 183 190 188 178 189 196 192 187 182
244 220 190 275 280 241 273 273 300 261 226 245 235 228 251 160 57 57 122 126 117 109 117 123 126 138 150 160 175 178 177 185 182 179 179 180 182 188 192 196 199 189 183 186
256 243 186 199 232 224 222 221 212 239 248 272 237 230 248 102 84 66 80 94 98 99 109 130 148 157 164 174 184 175 175 181 179 174 180 184 184 190 203 195 186 193 196 190
290 279 45 325 290 267 219 228 261 287 290 278 241 241 232 99 89 91 89 88 101 111 116 117 128 137 147 165 187 175 171 177 181 176 172 179 187 188 190 186 182 192 187 177
288 280 257 221 248 258 277 287 190 214 250 260 253 240 259 62 108 108 105 120 126 114 114 112 126 131 143 147 154 149 161 172 176 170 178 182 191 190 179 181 182 185 185 171
269 246 266 226 208 217 210 239 236 231 242 252 270 273 354 46 73 118 157 172 172 151 147 156 163 152 130 121 124 147 156 159 174 174 169 174 192 192 181 181 187 182 176 171
273 252 257 243 238 239 211 225 209 220 250 243 259 267 8 45 51 57 57 47 119 149 161 148 148 141 134 135 155 207 182 180 192 182 175 187 189 183 180 186 188 176 176 179
326 239 276 276 235 221 264 256 243 248 263 251 244 258 346 18 18 35 35 21 44 57 55 86 116 147 157 166 183 210 208 201 192 174 176 180 177 181 185 188 180 174 174 176
308 235 228 243 267 251 257 260 251 236 237 249 244 264 291 314 324 340 346 347 31 342 274 296 252 200 179 198 196 199 209 183 179 169 174 184 187 191 193 185 179 181 176 176
278 248 252 270 285 284 272 262 246 234 237 242 256 263 272 289 296 310 321 328 342 334 323 291 256 259 245 233 228 201 206 185 184 173 179 192 182 177 180 185 182 179 183 189
267 252 273 269 265 269 273 263 251 249 251 254 265 271 275 291 309 315 315 321 326 314 292 278 261 254 247 240 241 230 207 201 184 178 189 185 173 173 178 184 186 181 190 189
221 235 262 264 268 289 267 247 233 235 235 242 253 266 294 302 306 299 302 311 315 321 319 305 283 267 259 254 243 224 215 202 182 180 177 173 176 178 184 188 187 196 202 194
214 233 250 270 282 248 248 259 228 229 250 248 257 271 280 283 293 299 313 317 313 316 317 303 297 297 294 286 290 217 134 158 177 175 182 181 169 169 176 185 197 204 202 193
210 203 235 240 253 267 266 265 218 229 269 260 260 275 284 296 303 287 309 315 302 301 294 288 286 283 295 315 356 80 112 148 168 196 215 213 187 175 180 198 204 196 183 196
217 200 222 235 244 253 260 272 261 214 268 275 266 281 287 301 289 282 332 336 323 323 318 313 314 332 349 341 33 96 155 166 212 223 230 221 199 189 197 205 203 184 179 200
195 207 222 233 244 260 264 243 136 205 256 312 309 295 295 267 260 283 324 336 336 338 337 345 354 351 334 10 51 41 311 274 267 238 234 218 202 200 201 193 190 176 187 182
194 201 212 216 232 250 221 165 203 239 288 308 311 305 295 285 288 301 322 328 333 336 342 352 351 335 340 22 60 313 292 303 320 289 231 232 217 212 190 176 193 186 182 180
210 212 212 212 227 249 187 226 259 300 299 303 306 308 299 291 288 297 305 313 316 321 324 329 324 325 330 338 326 268 289 319 319 284 251 244 234 224 195 186 194 191 185 186
243 239 246 262 264 275 272 289 307 306 295 300 301 300 296 289 287 292 296 302 313 319 320 323 326 321 313 314 305 272 285 297 295 267 259 250 231 225 215 201 191 189 190 195
251 234 253 261 272 288 277 286 297 302 301 300 299 294 287 288 286 284 291 296 298 300 304 306 293 291 293 302 303 304 296 277 281 272 259 247 237 225 215 204 207 209 207 204
233 224 231 250 261 259 277 298 297 292 294 293 293 293 287 276 279 286 282 280 286 293 297 301 298 295 295 301 301 302 302 271 263 267 257 244 230 220 204 198 242 251 236 230